sat.trackr.live / text

‹ back to catalog

STARLINK-31631

NORAD 59459 · 2024-068E

PAYLOAD ACTIVE UNKNOWN

§ Identity

Operator
Country
US
Launch date
2024-04-10
Launch site
AFETR
Launch vehicle
Mass (kg)
RCS (m²)

Purposes: comms

External: N2YO · Heavens-Above · Gunter

§ Orbital elements

Epoch: 2026-05-25T04:13:14.270304Z

Period
94.27 min
Inclination
43.0032°
Eccentricity
0.0001272
Mean motion
15.27575400 rev/d
Perigee alt
482.2 km
Apogee alt
483.9 km
Semi-major
6,861.2 km
B*
-3.4362e-6
RAAN
318.8184°
Arg perigee
275.4249°
Mean anomaly
84.6458°
Rev number
12,026

§ Raw data

STARLINK-316311 59459U 24068E   26145.17585961 -.00000357  00000+0 -34362-5 0  99912 59459  43.0032 318.8184 0001272 275.4249  84.6458 15.27575400120266

JSON: /api/v1/satellites/59459 · /tle

For live sub-satellite position, see the globe view (requires WebGL).

§ Visibility from observer

Set your observer location to see the next 7 days of passes ≥ 10°. The values pass through the URL so the page stays shareable.

No JS? Fill the form by hand. The geolocation button needs JavaScript.